Date,TemperatureHighF,TemperatureAvgF,TemperatureLowF,DewpointHighF,DewpointAvgF,DewpointLowF,HumidityHigh,HumidityAvg,HumidityLow,PressureMaxIn,PressureMinIn,WindSpeedMaxMPH,WindSpeedAvgMPH,GustSpeedMaxMPH,PrecipitationSumIn
2013-1-1,20,7,-12,18,3,-17,90,83,77,30.34,30.02,6,1,8,0.00
2013-1-2,25,16,10,23,13,5,93,87,77,30.17,29.93,11,3,16,0.00
2013-1-3,17,9,0,13,4,-5,87,80,72,30.34,30.08,11,4,13,0.00
2013-1-4,28,18,9,17,12,6,88,78,61,30.14,30.04,5,1,9,0.00
2013-1-5,24,13,6,14,8,2,89,83,68,30.11,29.88,10,3,14,0.00
2013-1-6,20,13,7,15,9,1,90,86,74,30.27,29.92,11,4,14,0.00
2013-1-7,34,27,21,24,21,15,89,79,65,29.95,29.85,8,2,14,0.01
2013-1-8,32,24,15,27,20,12,92,87,79,29.96,29.70,9,3,16,0.00
2013-1-9,33,29,25,28,24,19,87,81,77,30.27,29.89,10,2,14,0.00
2013-1-10,37,33,29,34,27,23,100,79,61,30.20,29.64,0,0,0,0.01
2013-1-11,38,36,24,38,36,23,100,100,98,29.64,29.31,0,0,0,0.05
2013-1-12,23,7,0,22,1,-6,97,77,67,30.15,29.38,11,4,16,0.00
2013-1-13,6,2,-3,1,-4,-9,82,75,68,30.29,30.13,9,4,14,0.00
2013-1-14,10,4,-4,3,-2,-9,83,77,65,30.46,30.30,6,1,11,0.00
2013-1-15,24,14,4,14,7,0,85,73,58,30.30,29.76,10,3,15,0.00
2013-1-16,34,21,-1,33,15,-9,98,78,52,30.31,29.63,11,2,13,0.00
2013-1-17,18,8,-2,9,-1,-10,76,67,54,30.45,30.26,9,2,13,0.00
2013-1-18,37,27,14,28,21,-100,92,79,68,30.26,29.73,8,3,17,0.00
2013-1-19,37,18,-2,30,13,-9,93,78,57,30.31,29.67,23,8,28,0.01
2013-1-20,7,-1,-8,-1,-9,-16,73,68,63,30.49,30.30,12,6,15,0.00
2013-1-21,-5,-10,-14,-15,-18,-22,75,66,58,30.46,30.34,9,4,13,0.00
2013-1-22,3,-7,-17,-4,-14,-24,75,70,62,30.48,30.29,3,0,7,0.00
2013-1-23,8,1,-10,3,-8,-19,85,68,49,30.69,30.21,21,7,28,0.00
2013-1-24,12,-1,-10,1,-11,-20,66,61,54,30.73,30.16,13,5,21,0.00
2013-1-25,16,6,-3,10,-1,-9,77,70,63,30.38,29.98,17,7,23,0.00
2013-1-26,20,8,-5,11,0,-11,77,71,63,30.39,30.07,12,4,16,0.00
2013-1-27,31,27,20,30,22,10,97,80,65,30.07,29.77,8,2,13,0.01
2013-1-28,32,31,31,32,30,30,100,99,97,29.83,29.78,0,0,0,0.00
2013-2-8,24,20,6,21,16,3,90,82,73,30.37,30.13,7,1,11,0.00
2013-2-9,31,27,23,30,25,21,99,94,88,30.13,29.85,0,0,0,0.00
2013-2-10,29,27,25,29,26,25,99,97,92,29.85,29.32,0,0,0,0.00
2013-2-11,26,20,12,25,16,9,95,84,75,30.06,29.44,0,0,0,0.00
2013-2-12,29,20,10,19,15,7,89,81,66,30.06,29.81,0,0,0,0.00
2013-2-13,34,26,15,31,23,13,100,89,70,29.81,29.56,0,0,0,1.06
2013-2-14,31,19,4,31,13,-2,100,77,45,30.26,29.63,9,1,10,0.00
2013-2-15,16,6,0,4,0,-4,86,76,51,30.39,30.25,9,4,11,0.00
2013-2-16,12,10,7,6,4,3,87,80,71,30.31,30.10,6,2,11,0.00
2013-2-17,31,20,8,25,16,4,89,82,77,30.10,29.53,13,3,24,0.00
2013-2-18,30,15,-2,29,10,-8,96,80,70,29.98,29.49,14,4,22,0.00
2013-2-19,-1,-5,-9,-7,-13,-16,74,68,62,30.50,29.99,13,8,17,0.00
2013-2-20,10,0,-16,-1,-9,-22,76,67,56,30.57,30.42,6,1,8,0.00
2013-2-21,19,13,4,13,4,-3,79,66,58,30.47,30.11,6,2,9,0.00
2013-2-22,24,20,13,18,16,10,91,84,76,30.11,29.90,0,0,0,7.50
2013-2-23,28,17,6,18,13,3,91,84,67,29.97,29.87,0,0,0,0.02
2013-2-24,27,14,1,18,8,-3,89,78,61,30.12,29.97,0,0,0,0.01
2013-2-25,28,20,9,24,17,6,94,89,79,30.14,30.05,5,0,6,0.01
2013-2-26,28,22,16,25,19,14,96,89,77,30.07,29.95,10,3,13,3.87
2013-2-27,35,25,20,22,17,14,80,71,54,30.09,29.94,13,9,17,0.00
2013-2-28,27,24,17,20,18,13,83,77,68,30.26,30.09,8,3,13,0.00
2013-3-1,25,19,9,15,12,6,86,76,64,30.40,30.26,9,3,13,0.00
2013-3-2,23,14,0,14,8,-4,87,76,61,30.39,30.14,6,2,8,0.00
2013-3-3,29,24,17,18,14,9,85,66,48,30.14,29.92,14,5,18,0.00
2013-3-4,24,22,21,21,20,19,93,90,85,30.00,29.87,10,6,16,0.00
2013-3-5,27,23,20,22,20,16,94,88,76,30.34,29.95,11,5,15,0.00
2013-3-6,25,18,10,17,14,7,89,82,70,30.45,30.35,8,1,9,0.01
2013-3-7,26,17,4,17,12,0,90,80,67,30.38,30.24,12,4,15,0.00
2013-3-8,32,24,15,29,20,13,91,82,72,30.29,30.03,7,4,13,0.00
2013-3-9,37,34,32,37,34,29,100,99,89,30.03,29.66,13,5,16,0.38
2013-3-10,32,26,24,31,22,19,94,84,77,30.03,29.81,18,13,29,0.00
2013-3-11,25,22,17,19,15,11,83,74,65,29.97,29.80,12,6,22,0.00
2013-3-12,24,20,14,20,14,10,86,78,66,30.28,29.84,16,10,26,0.00
2013-3-13,26,17,6,18,11,3,89,78,62,30.42,30.20,8,2,15,0.01
2013-3-14,38,28,22,27,24,18,95,82,63,30.18,30.01,8,2,16,0.01
2013-3-15,32,29,22,30,27,21,96,93,88,30.00,29.82,7,2,13,24.33
2013-3-16,22,14,3,21,8,-3,95,78,63,30.32,29.94,12,2,17,0.00
2013-3-17,25,13,1,22,5,-5,90,71,63,30.32,29.74,13,6,26,0.00
2013-3-18,32,18,8,32,14,2,100,85,73,29.94,29.55,15,11,31,0.00
2013-3-19,16,9,3,2,-2,-8,77,63,41,30.30,29.94,17,10,30,0.00
2013-3-20,15,9,3,2,-2,-6,72,63,52,30.34,30.20,16,10,30,0.00
2013-3-21,23,11,-2,7,1,-7,79,65,48,30.20,30.10,5,1,11,0.00
2013-3-22,30,18,3,16,9,-1,83,69,43,30.13,30.07,3,1,9,0.00
2013-3-23,31,21,9,20,14,4,85,72,52,30.19,30.09,8,2,13,0.00
2013-3-24,31,24,18,25,19,15,88,80,65,30.14,30.03,12,6,20,0.01
2013-3-25,32,27,19,22,18,14,83,70,53,30.29,30.08,15,10,22,0.00
2013-3-26,35,23,12,22,15,8,87,74,57,30.34,30.28,6,2,11,0.00
2013-3-27,36,26,12,21,17,8,90,69,49,30.35,30.31,7,2,13,0.00
2013-3-28,39,32,25,28,24,18,79,70,60,30.31,30.22,8,4,16,0.00
2013-3-29,45,38,32,38,33,27,90,80,69,30.23,29.94,9,4,16,0.01
2013-3-30,43,38,31,38,35,29,95,86,72,29.94,29.83,9,3,20,0.08
2013-3-31,33,29,18,32,21,10,100,74,47,30.17,29.80,19,11,31,0.00
2013-4-1,28,20,13,15,11,8,82,67,47,30.32,30.17,12,8,21,0.00
2013-4-2,32,23,15,16,13,9,91,67,41,30.37,30.28,8,2,15,0.00
2013-4-3,46,33,17,36,24,12,84,71,62,30.37,29.95,14,7,30,0.00
2013-4-4,43,36,27,33,27,20,90,70,53,30.19,29.96,13,7,21,0.00
2013-4-5,35,30,23,30,24,16,90,79,60,30.23,29.79,11,5,23,0.01
2013-4-6,45,38,34,36,32,30,89,78,69,29.78,29.50,13,7,23,0.00
2013-4-7,43,36,31,41,32,28,99,85,71,29.90,29.70,8,3,15,0.21
2013-4-8,42,39,36,42,38,32,100,95,84,30.05,29.66,10,6,15,0.01
2013-4-9,36,31,26,33,22,18,88,70,55,30.19,30.01,18,11,23,0.01
2013-4-10,37,34,30,27,22,18,91,62,47,30.19,29.89,12,8,18,0.00
2013-4-11,34,30,28,34,30,24,100,97,71,29.91,29.69,11,8,23,0.08
2013-4-12,32,29,27,29,27,25,100,92,78,29.85,29.71,11,7,15,0.06
2013-4-13,34,30,27,26,24,22,94,81,66,29.92,29.84,7,3,9,0.00
2013-4-14,34,30,27,34,27,22,100,87,72,29.90,29.41,13,4,21,0.03
2013-4-15,36,33,30,34,29,27,100,84,74,29.98,29.39,11,3,16,0.05
2013-4-16,37,33,28,28,25,24,87,75,64,30.33,29.97,10,5,13,0.00
2013-4-17,37,34,30,33,28,25,100,81,70,30.32,29.99,10,4,13,0.02
2013-4-18,34,32,31,34,32,28,100,99,91,29.99,29.64,16,11,21,0.04
2013-4-19,34,31,26,32,24,17,100,79,52,30.02,29.60,20,12,25,0.02
2013-4-20,35,28,19,25,17,9,85,65,40,30.27,30.03,8,3,15,0.00
2013-4-21,45,37,29,42,34,26,98,89,78,30.26,29.97,16,7,22,0.10
2013-4-22,35,32,29,32,29,23,100,87,61,30.25,30.13,14,8,17,0.00
2013-4-23,35,28,20,27,20,15,93,72,54,30.23,30.08,12,7,17,0.05
2013-4-24,44,34,26,33,27,22,94,76,51,30.08,29.90,14,6,17,0.00
2013-4-25,49,38,28,33,27,23,87,68,44,30.19,29.95,9,5,17,0.00
2013-4-26,67,53,41,44,35,28,81,54,26,30.10,29.86,11,4,15,0.00
2013-4-27,73,57,38,38,33,30,81,44,21,30.09,29.76,7,2,10,0.00
2013-4-28,75,61,51,49,44,34,79,57,27,29.76,29.59,14,5,16,0.00
2013-4-29,71,56,38,48,36,25,75,50,21,29.80,29.40,9,4,11,0.00
2013-4-30,64,58,48,56,41,24,80,55,24,29.94,29.23,14,7,22,0.00
2013-5-1,48,38,32,34,26,21,74,62,51,30.53,29.95,15,11,23,0.00
2013-5-2,44,36,31,27,24,17,78,61,42,30.60,30.45,18,11,24,0.00
2013-5-3,42,35,27,32,24,21,87,64,45,30.46,30.16,13,8,17,0.00
2013-5-4,40,36,34,39,35,32,99,93,89,30.18,30.12,12,8,16,0.07
2013-5-5,52,45,39,46,43,39,100,92,77,30.17,29.99,8,3,11,0.00
2013-5-6,71,55,40,50,45,39,98,72,45,30.09,29.96,5,1,8,0.00
2013-5-7,76,62,45,50,44,38,94,56,27,30.00,29.86,7,1,13,0.00
2013-5-8,64,58,55,57,52,41,94,81,44,29.95,29.86,8,3,11,0.28
2013-5-9,56,52,45,54,48,36,100,87,68,30.10,29.89,11,6,17,0.29
2013-5-10,65,51,35,45,29,20,79,49,20,30.12,29.84,17,4,18,0.00
2013-5-11,49,44,38,38,24,16,74,48,27,30.18,29.94,21,13,29,0.00
2013-5-12,58,46,32,26,20,14,67,40,21,30.22,30.05,12,4,17,0.00
2013-5-13,82,61,42,49,34,18,51,37,27,30.05,29.54,15,5,24,0.00
2013-5-14,92,73,54,48,42,27,66,36,13,29.64,29.39,17,6,23,0.00
2013-5-15,80,66,50,47,43,37,74,46,21,29.84,29.64,14,3,16,0.00
2013-5-16,80,69,53,46,39,31,72,37,21,29.83,29.68,8,3,15,0.00
2013-5-17,68,60,56,57,48,29,100,72,25,29.88,29.74,9,5,17,0.09
2013-5-18,76,66,56,67,62,56,100,90,69,29.84,29.67,10,4,14,0.46
2013-5-19,78,68,63,65,63,59,100,85,54,29.66,29.46,11,4,18,0.15
2013-5-20,67,62,59,63,58,51,100,87,62,29.47,29.38,9,3,14,0.43
2013-5-21,59,52,47,57,52,47,100,99,88,29.70,29.42,7,3,11,0.67
2013-5-22,53,48,44,48,46,43,99,93,76,30.00,29.68,12,7,22,0.08
2013-5-23,62,52,43,43,36,28,88,57,28,30.27,30.01,10,3,13,0.00
2013-5-24,66,54,43,51,39,31,90,61,33,30.29,30.10,11,4,17,0.15
2013-5-25,57,54,52,50,48,45,91,82,75,30.14,30.07,10,6,16,0.00
2013-5-26,56,52,50,49,45,42,84,77,69,30.13,29.95,10,6,16,0.00
2013-5-27,61,56,52,54,51,48,94,83,72,29.98,29.76,7,4,13,0.00
2013-5-28,61,57,54,56,54,53,100,92,80,29.75,29.60,5,1,10,0.00
2013-5-29,73,64,54,66,60,54,100,89,72,29.72,29.50,8,3,11,0.53
2013-5-30,73,67,62,64,60,55,94,80,64,29.51,29.32,12,6,21,0.06
2013-5-31,66,62,57,62,53,50,95,72,61,29.45,29.35,9,3,17,0.00
2013-6-1,65,56,50,56,50,43,99,81,70,29.94,29.46,15,7,21,0.01
2013-6-2,65,55,46,47,41,37,89,61,39,30.06,29.94,9,3,13,0.00
2013-6-3,66,57,42,49,43,40,98,64,41,30.00,29.89,6,2,9,0.00
2013-6-4,61,57,53,58,52,44,100,87,55,30.00,29.87,9,4,16,0.60
2013-6-5,63,58,54,58,53,50,100,86,61,29.95,29.89,7,2,16,0.00
2013-6-6,57,53,49,51,49,48,98,87,75,30.01,29.93,6,2,9,0.00
2013-6-7,63,57,51,50,49,46,92,77,58,30.00,29.85,3,0,10,0.00
2013-6-8,66,60,53,54,52,49,92,76,56,29.85,29.78,7,2,14,0.00
2013-6-9,60,58,56,58,56,52,100,93,74,29.78,29.68,7,3,13,0.48
2013-6-10,73,64,56,60,58,54,100,81,57,29.81,29.72,4,0,7,0.00
2013-6-11,73,66,59,65,60,55,100,84,56,29.87,29.73,7,1,8,0.01
2013-6-12,69,64,58,60,55,48,93,72,52,29.93,29.70,10,2,13,0.12
2013-6-13,76,66,54,55,52,49,84,61,41,30.05,29.94,6,2,9,0.00
2013-6-14,76,69,60,63,58,52,85,69,55,29.99,29.74,12,4,16,0.00
2013-6-15,80,71,60,66,56,44,97,64,29,29.83,29.75,10,2,13,0.00
2013-6-16,84,69,54,61,51,43,86,57,24,29.86,29.75,7,1,9,0.09
2013-6-17,78,69,57,58,55,53,93,64,44,29.93,29.79,7,2,9,0.00
2013-6-18,76,65,52,58,53,44,92,68,47,30.03,29.93,5,1,8,0.01
2013-6-19,84,73,62,62,57,53,84,62,36,29.94,29.81,6,2,11,0.00
2013-6-20,86,77,70,66,64,60,81,64,47,29.89,29.67,13,4,18,0.00
2013-6-21,80,69,60,67,62,58,100,81,60,29.98,29.60,13,3,33,0.99
2013-6-22,78,70,65,67,63,58,90,80,62,29.90,29.69,9,2,15,0.01
2013-6-23,79,72,65,70,64,59,100,79,52,29.78,29.43,10,2,11,0.64
2013-6-24,77,71,61,70,64,59,96,81,66,29.81,29.69,7,1,10,0.00
2013-6-25,83,74,65,72,68,63,94,81,64,29.71,29.56,6,1,9,0.00
2013-6-26,83,76,71,72,67,60,96,74,47,29.72,29.54,7,0,8,0.00
2013-6-27,82,75,66,67,59,52,89,61,36,29.78,29.71,0,0,0,0.00
2013-6-28,76,70,64,60,58,56,79,65,52,29.77,29.74,3,0,3,0.00
2013-6-29,76,68,62,62,55,47,96,66,38,29.94,29.73,0,0,0,0.10
2013-6-30,79,68,56,59,53,45,89,63,34,30.07,29.94,0,0,2,0.00
2013-7-1,83,72,60,59,55,47,89,58,30,30.13,30.06,5,0,7,0.00
2013-7-2,83,72,60,60,56,51,94,61,34,30.09,29.96,2,0,4,0.00
2013-7-3,82,73,61,62,55,47,87,54,32,29.99,29.84,2,0,2,0.00
2013-7-4,86,76,65,62,56,52,72,51,33,29.85,29.70,0,0,0,0.00
2013-7-5,88,78,69,66,61,55,64,55,42,29.74,29.66,0,0,0,0.00
2013-7-6,81,74,67,72,66,61,97,76,62,29.74,29.68,0,0,0,0.10
2013-7-7,87,78,72,74,69,66,93,76,58,29.81,29.69,3,0,6,0.02
2013-7-8,86,74,66,69,64,56,92,73,36,29.92,29.82,2,0,4,0.00
2013-7-9,82,73,66,70,67,60,100,82,62,29.91,29.61,1,0,4,0.60
2013-7-10,77,68,58,60,56,52,93,69,42,30.01,29.91,1,0,4,0.00
2013-7-11,81,71,58,62,59,56,98,68,49,30.02,29.83,0,0,0,0.00
2013-7-12,86,76,69,68,62,57,69,61,53,29.84,29.72,0,0,0,0.00
2013-7-13,78,72,69,69,65,62,88,80,58,29.95,29.77,0,0,0,0.01
2013-7-14,75,70,67,69,64,59,99,83,73,30.10,29.92,0,0,0,0.10
2013-7-15,84,75,67,68,66,63,98,75,51,30.13,30.04,0,0,0,0.00
2013-7-16,89,81,72,71,68,61,88,67,43,30.10,30.03,2,0,4,0.00
2013-7-17,90,81,73,71,68,65,78,65,46,30.13,29.98,2,0,4,0.00
2013-7-18,91,83,76,72,69,67,79,64,46,29.98,29.63,2,0,4,0.00
2013-7-19,80,75,62,71,63,56,92,67,48,29.84,29.63,4,0,9,0.02
2013-7-20,76,68,62,65,61,56,100,80,57,29.89,29.81,2,0,4,0.00
2013-7-21,79,71,62,68,62,56,87,74,61,29.86,29.66,0,0,0,0.00
2013-7-22,79,72,62,69,62,53,94,73,52,29.82,29.58,2,0,2,0.00
2013-7-23,74,65,56,57,54,50,91,69,44,29.96,29.82,2,0,4,0.00
2013-7-24,79,69,60,58,55,49,89,63,38,29.98,29.87,0,0,0,0.00
2013-7-25,78,69,62,64,61,57,96,77,54,29.93,29.82,0,0,0,0.05
2013-7-26,66,60,52,59,52,47,91,74,54,30.08,29.86,5,0,5,0.01
2013-7-27,67,57,46,48,44,42,89,65,43,30.08,29.91,3,0,6,0.00
2013-7-28,72,60,47,53,48,43,89,66,45,30.01,29.94,3,0,7,0.00
2013-7-29,73,63,52,60,54,51,98,75,46,30.04,29.98,0,0,0,0.05
2013-7-30,74,65,60,65,62,58,100,91,67,30.02,29.96,1,0,2,0.26
2013-7-31,77,67,59,68,58,49,100,77,40,30.01,29.94,0,0,0,0.01
2013-8-1,80,67,54,57,54,49,94,65,40,29.98,29.81,1,0,2,0.00
2013-8-2,74,66,56,57,53,46,86,65,39,29.99,29.81,0,0,0,0.00
2013-8-3,74,64,54,56,50,43,88,63,35,30.15,30.00,0,0,0,0.00
2013-8-4,72,63,53,59,53,50,89,72,48,30.17,29.88,1,0,2,0.00
2013-8-5,79,68,61,66,62,58,100,83,56,29.94,29.75,1,0,1,0.26
2013-8-6,83,67,57,68,62,56,100,86,56,29.78,29.60,0,0,4,0.98
2013-8-7,73,65,57,64,54,46,100,73,42,29.96,29.73,0,0,0,0.01
2013-8-8,74,64,57,62,58,54,96,82,61,30.00,29.91,0,0,0,0.00
2013-8-9,71,64,55,61,53,47,100,73,48,30.07,29.94,0,0,0,0.00
2013-8-10,74,64,53,57,54,50,96,72,48,30.13,30.00,0,0,0,0.00
2013-8-11,78,69,62,62,59,56,87,71,51,30.00,29.93,0,0,0,0.00
2013-8-12,76,66,56,58,55,50,92,68,44,30.02,29.96,0,0,0,0.00
2013-8-13,73,63,53,56,50,44,92,66,37,30.14,30.02,0,0,0,0.00
2013-8-14,76,64,52,58,52,46,94,68,38,30.13,30.02,0,0,0,0.00
2013-8-15,76,64,55,66,57,52,100,81,49,30.07,30.00,0,0,0,0.06
2013-8-16,75,66,55,63,56,52,100,75,48,30.11,30.06,0,0,0,0.00
2013-8-17,78,69,59,60,57,54,88,69,51,30.09,29.99,0,0,0,0.00
2013-8-18,78,70,61,60,58,55,83,67,50,30.02,29.88,0,0,0,0.00
2013-8-19,84,75,66,70,65,59,86,73,58,29.92,29.76,2,0,8,0.00
2013-8-20,86,77,69,74,71,68,96,81,64,29.78,29.72,0,0,0,0.00
2013-8-21,88,78,72,73,67,56,98,71,36,29.92,29.69,0,0,0,0.00
2013-8-22,81,72,64,60,52,43,82,52,26,30.06,29.93,0,0,0,0.00
2013-8-23,82,72,62,69,60,48,84,67,54,30.05,29.90,0,0,0,0.00
2013-8-24,86,78,71,72,69,67,92,76,56,29.91,29.76,0,0,0,0.00
2013-8-25,91,82,76,75,72,70,83,72,56,29.86,29.78,0,0,0,0.00
2013-8-26,91,83,75,76,73,70,90,74,56,29.84,29.69,2,0,4,0.00
2013-8-27,90,82,75,76,73,69,96,77,53,29.83,29.66,5,0,7,0.00
2013-8-28,84,77,71,74,71,68,100,82,65,29.92,29.82,0,0,0,0.00
2013-8-29,77,76,75,77,74,70,100,93,81,29.87,29.82,0,0,0,0.00